OpenBCM V2.0.3 (Linux)

Packet Radio Mailbox

IZ3LSV

[San Dona' di P. JN]

 Login: GUEST





  
I0OJJ  > AMSAT    21.07.26 02:38l 322 Lines 15211 Bytes #999 (0) @ WW
BID : A5RQB_I0OJJ
Read: GUEST
Subj: 2Line Orbital Elements
Path: IZ3LSV<I0OJJ
Sent: 260721/0034z @:I0OJJ.ITA.EU [Rome] $:A5RQB_I0OJJ

>From i0ojj@i0ojj.ampr.org Tue Jul 21 02:34:14 2026
Received: from i0ojj.ampr.org by i0ojj.ampr.org (JNOS2.0q.1) with SMTP
	id AA17065379 ; Tue, 21 Jul 2026 02:34:14 +0200
Received: by i0ojj.ampr.org with SMTP
	id AA17065376 ; Tue, 21 Jul 2026 02:27:02 +0200
Message-Id: <17065377@i0ojj.ampr.org>
>From: i0ojj@i0ojj.ampr.org

SB KEPS @ AMSAT  $ORB26202.1
2Line Orbital Elements 26202.AMSAT

QST de W1STR

AMSAT Orbital Elements for Amateur Satellites in TLE Format
>From Orbital Analysis Office
New England Sci-Tech STEM Education Center
Natick MA July 21, 2026
To all radio amateurs


These element sets describe the orbits of various satellites 
in use by the amateur radio community. For details see:
www.amsat.org/keplerian-elements-formats/

A daily update of element sets is available at:
www.amsat.org/tle/daily-bulletin.txt
or without bulletin text:
www.amsat.org/tle/dailytle.txt


AO-07
1 07530U 74089B   26201.89863118 -.00000049  00000-0 -18960-4 0  9991
2 07530 101.9907 215.4967 0012627  67.8285 359.0516 12.53698628364745
UO-11
1 14781U 84021B   26201.84770073  .00000920  00000-0  99049-4 0  9999
2 14781  97.8081 167.0524 0009172  75.7217 284.5019 14.90857629262144
LO-19
1 20442U 90005G   26201.81037565  .00000045  00000-0  32793-4 0  9999
2 20442  98.8846 224.5413 0012656 106.3083 253.9494 14.34131740907212
AO-27
1 22825U 93061C   26201.77297957  .00000028  00000-0  27786-4 0  9996
2 22825  98.6863 269.1713 0008427  10.0473 350.0876 14.30950010711805
FO-29
1 24278U 96046B   26201.43295381 -.00000049  00000-0 -13729-4 0  9995
2 24278  98.5217  45.7476 0350108  10.3648 350.4474 13.53275815477666
GO-32
1 25397U 98043D   26201.85119933  .00000025  00000-0  30990-4 0  9992
2 25397  99.0090 195.4621 0002308 106.0709 254.0724 14.24434043456120
ISS
1 25544U 98067A   26201.79846069  .00005574  00000-0  10900-3 0  9994
2 25544  51.6312 133.7599 0006836 319.3995  40.6483 15.49066413576966
NO-44
1 26931U 01043C   26201.33574834  .00000044  00000-0  47440-4 0  9998
2 26931  67.0500 158.5337 0005868 267.0045  93.0386 14.31966213295195
SO-50
1 27607U 02058C   26201.87072539  .00000570  00000-0  85010-4 0  9999
2 27607  64.5521  24.7631 0074349 256.2423 103.0400 14.83105558269455
CO-55
1 27844U 03031E   26201.82623459  .00000172  00000-0  93434-4 0  9999
2 27844  98.6745 209.9631 0010867  88.2698 271.9726 14.24353809196468
RS-22
1 27939U 03042A   26201.90214589  .00000704  00000-0  11651-3 0  9996
2 27939  98.3483  27.2157 0011668 155.3974 310.5690 14.73520351220512
CO-65
1 32785U 08021C   26201.85472929  .00002878  00000-0  18257-3 0  9994
2 32785  97.8299 183.9850 0006860 275.6715  84.3731 15.09729888990278
CO-66
1 32791U 08021J   26201.41840544  .00010808  00000-0  33333-3 0  9999
2 32791  97.7536 200.9319 0003658 145.6497 214.4982 15.33774165992386
RS-30
1 32953U 08025A   26201.81878000  .00000078  00000-0  49213-3 0  9997
2 32953  82.5072 334.5192 0018769 236.0062 123.9235 12.43180997823872
SRMSAT
1 37841U 11058D   26201.36756309  .00000330  00000-0  35428-4 0  9990
2 37841  19.9702 218.6370 0011604 208.2906 179.8338 14.11581727762516
ZACUBE-1
1 39417U 13066B   26201.86646473  .00001847  00000-0  14537-3 0  9998
2 39417  97.7999 164.3670 0044079 137.0238 223.4443 15.01347026685786
Delfi-N3xt
1 39428U 13066N   26201.77200782  .00003920  00000-0  34052-3 0  9997
2 39428  97.8308 122.0555 0075688  94.7889 266.1980 14.95394148679644
GOMX-1
1 39430U 13066Q   26201.82257538  .00000605  00000-0  97868-4 0  9999
2 39430  97.6466  40.1627 0127775 330.0920  29.3028 14.69549807674852
LO-74
1 39440U 13066AA  26201.82121942  .00001885  00000-0  17745-3 0  9995
2 39440  97.8921 150.9507 0055527 276.2842  83.2055 14.93990306682014
AO-73
1 39444U 13066AE  26201.85964421  .00005490  00000-0  33755-3 0  9994
2 39444  97.8300 174.0216 0038088  89.2835 271.2758 15.09868744684749
DTUSAT-2
1 40030U 14033W   26201.25708975  .00003490  00000-0  18868-3 0  9992
2 40030  98.0885 201.0957 0009604 117.2472 242.9738 15.15389385657690
LILACSAT-2
1 40908U 15049K   26201.86393093  .00013558  00000-0  22271-3 0  9991
2 40908  97.4628 240.0044 0008635 124.9687 235.2378 15.52489651600970
Lapan A3
1 41603U 16040E   26201.86789134  .00001839  00000-0  59450-4 0  9990
2 41603  97.1509 196.9145 0008343 251.1072 108.9267 15.33299024559974
CAS-2T
1 41847U 16066G   26201.82994351  .00000501  00000-0  78947-4 0  9990
2 41847  98.3810 277.1812 0341953  27.6850 334.2092 14.44776648509655
TechnoSat
1 42829U 17042E   26201.69104277  .00001305  00000-0  95575-4 0  9990
2 42829  97.4324 358.0846 0016903 345.2388  14.8343 15.05128015491748
AO-91
1 43017U 17073E   26201.14517518  .00003253  00000-0  14349-3 0  9993
2 43017  97.4661  67.6884 0148448 214.2207 144.9390 15.13099239470379
S-Net D
1 43186U 18014G   26201.71029078  .00002586  00000-0  13451-3 0  9999
2 43186  97.5322 106.2924 0006211 260.6706  99.3825 15.16946286463842
S-Net B
1 43187U 18014H   26201.72240568  .00002534  00000-0  13194-3 0  9997
2 43187  97.5327 106.2921 0006896 254.9755 105.0715 15.16915704463848
S-Net A
1 43188U 18014J   26201.70898412  .00002597  00000-0  13502-3 0  9995
2 43188  97.5337 106.4940 0006754 255.8122 104.2361 15.16954433463844
S-Net C
1 43189U 18014K   26201.72646462  .00002589  00000-0  13477-3 0  9996
2 43189  97.5352 106.5910 0008213 246.9409 113.0959 15.16906936462396
Ten-Koh
1 43677U 18084G   26201.81048139  .00001340  00000-0  10431-3 0  9993
2 43677  98.0771  35.5899 0009585  14.6020 345.5479 15.03064121421210
PO-101
1 43678U 18084H   26201.84562874  .00000944  00000-0  79875-4 0  9991
2 43678  98.1220  39.5289 0012528  66.7928 293.4613 15.00575137421261
QO-100
1 43700U 18090A   26201.33824611  .00000143  00000-0  00000-0 0  9999
2 43700   0.0208  80.1003 0002452  77.6851 287.8888  1.00274071 28006
MinXSS-2
1 43758U 18099A   26201.76904020  .00026876  00000-0  49516-3 0  9990
2 43758  97.4515 279.0910 0008953 143.4502 216.7361 15.49089709419329
AO-95
1 43770U 18099N   26201.69339169  .00006582  00000-0  24842-3 0  9999
2 43770  97.4361 261.8279 0007726 217.8833 142.1863 15.27341494418336
SNUSat 2
1 43782U 18099AA  26201.13840764  .00004304  00000-0  18974-3 0  9998
2 43782  97.4037 254.0225 0010748 171.0572 189.0857 15.22283253418047
SnugLite
1 43784U 18099AC  26201.09395053  .00006593  00000-0  24535-3 0  9993
2 43784  97.3846 255.0614 0004033 147.3868 212.7621 15.27820786418342
ITASat 1
1 43786U 18099AE  26201.41463476  .00003642  00000-0  17496-3 0  9996
2 43786  97.4007 252.2679 0011187 230.0239 130.0014 15.19417487417959
EAGLET 1
1 43790U 18099AJ  26201.11949023  .00001636  00000-0  95801-4 0  9993
2 43790  97.4212 249.9171 0009921 224.9635 135.0794 15.13154065417311
ESEO
1 43792U 18099AL  26201.37295646  .00001056  00000-0  79824-4 0  9991
2 43792  97.3964 237.3388 0011144 213.1460 146.9069 15.04335672416795
JO-97
1 43803U 18099AX  26201.81639694  .00012271  00000-0  36756-3 0  9995
2 43803  97.4107 264.7878 0007261 141.3682 218.8082 15.34633292418786
Suomi 100
1 43804U 18099AY  26201.71837388  .00007848  00000-0  27991-3 0  9990
2 43804  97.4162 261.9999 0011055 154.4041 205.7749 15.29109783418547
ISAT
1 43879U 18111D   26201.78185205  .00093448  00000-0  71539-3 0  9996
2 43879  97.5840 139.7558 0008567 129.2596 230.9428 15.71801824416437
UWE-4
1 43880U 18111E   26201.78247036  .00021799  00000-0  41741-3 0  9991
2 43880  97.5826 131.7716 0007026 173.9264 186.2072 15.48042440415979
Sparrow
1 43881U 18111F   26201.81392856  .00232696  00000-0  86831-3 0  9996
2 43881  97.6062 146.1688 0009194 135.5350 224.6660 15.87327600416685
Prox-1
1 44339U 19036A   26201.78709348  .00006689  00000-0  62680-3 0  9993
2 44339  23.9939 249.6714 0006415  68.8494 291.2691 14.91313596378491
Taurus 1
1 44530U 19059C   26201.88440105  .00003340  00000-0  53573-3 0  9997
2 44530  98.6451   8.8158 0008492 197.0939 162.9982 14.72401159363601
TO-108
1 44881U 19093C   26201.83507038  .00000830  00000-0  99548-4 0  9992
2 44881  97.7512 273.2447 0013035 342.9580  17.1196 14.86567164356412
RS-44
1 44909U 19096E   26201.85731034  .00000003  00000-0 -38551-4 0  9993
2 44909  82.5240 317.3331 0218407  65.8142 296.5620 12.79748835306652
SALSAT
1 46495U 20068K   26200.97640307  .00004107  00000-0  14329-3 0  9994
2 46495  97.8865 206.0496 0009725 176.0322 184.0997 15.30211220320374
CSS (TIANHE-1)
1 48274U 21035A   26201.79118141  .00010450  00000-0  13847-3 0  9995
2 48274  41.4681 117.9120 0001779 306.1178  53.9495 15.58223796298419
CUTE
1 49263U 21088D   26197.83813593  .08921004  25505-5  41832-3 0  9995
2 49263  97.3907 300.4441 0014216 277.7997  82.1689 16.41647044267308
TeikyoSat 4
1 49396U 21102B   26201.06499312  .00000752  00000-0  50474-4 0  9990
2 49396  97.3661 229.2704 0012199 171.9049 188.2380 15.09608651257683
Z-Sat
1 49399U 21102E   26201.87374216  .00001703  00000-0  85482-4 0  9991
2 49399  97.3315 236.1760 0018174 125.9967 234.2955 15.18487251258556
KOSEN 1
1 49402U 21102H   26201.36408689  .00004209  00000-0  15984-3 0  9995
2 49402  97.3168 242.8826 0015419  91.5550 268.7456 15.27256919259081
HO-113
1 50466U 21131B   26201.86139634  .00000198  00000-0  74660-4 0  9995
2 50466  98.4983 294.0697 0004206  15.8383 344.2937 14.41384357239962
SNUGLITE 2
1 52899U 22065F   26201.85393939  .00000576  00000-0  11810-3 0  9990
2 52899  98.2245 346.6331 0006137 279.2276  80.8233 14.64400466215921
UmKA 1 (RS40S)
1 57172U 23091G   26201.84314510  .00003836  00000-0  17505-3 0  9995
2 57172  97.5028 260.4152 0012458  10.5246 349.6247 15.21158333169129
CubeBel-2 (EU11S)
1 57175U 23091K   26201.80978617  .00008576  00000-0  29851-3 0  9991
2 57175  97.5028 265.3422 0008944   7.0424 353.0940 15.29903624169443
